Weather History for Coolangatta, QU

Change the Weather History Date:

Sunday, September 22, 2013

  Actual Average (YBBN) Record (YBBN)
Temperature  
Mean Temperature 62 °F -  
Max Temperature 74 °F 73 °F 80 °F (2012)
Min Temperature 50 °F 55 °F 50 °F (1996)
Degree Days  
Heating Degree Days 3    
Growing Degree Days 12 (Base 50)    
Moisture  
Dew Point 56 °F    
Average Humidity 75    
Maximum Humidity 94    
Minimum Humidity 52    
Precipitation  
Precipitation 0.00 in - - ()
Sea Level Pressure  
Sea Level Pressure 29.96 in    
Wind  
Wind Speed 5 mph ()    
Max Wind Speed 18 mph    
Max Gust Speed -    
Visibility 6.2 miles    
Events      
Averages and records for this station are not official NWS values.
T = Trace of Precipitation, MM = Missing Value Source: Averaged Metar Reports

Daily Weather History Graph

Daily Weather History Graph

Search for Another Location

Airport:

Trip Planner

Search our weather history database for the weather conditions in past years. The results will help you decide how hot, cold, wet, or windy it might be!

Date:

Astronomy

Sep. 22, 2013 Rise Set
Actual Time 5:36 AM EST 5:42 PM EST
Civil Twilight 5:12 AM EST 6:05 PM EST
Nautical Twilight 4:45 AM EST 6:32 PM EST
Astronomical Twilight 4:17 AM EST 7:00 PM EST
Moon 8:26 PM EST (9/22) 7:02 AM EST (9/22)
Length of Visible Light 12h 52m
Length of Day
12h 06m
Waning Gibbous, 92% of the Moon is Illuminated
Sep 22
Waning Gibbous
Sep 27
Last Quarter
Oct 5
New
Oct 12
First Quarter
Oct 19
Full

Hourly Weather History & Observations

Time (EST) Temp. Dew Point Humidity Pressure Visibility Wind Dir Wind Speed Gust Speed Precip Events Conditions
12:00 AM 55 °F 52 °F 86% 29.99 in - SW 2.3 mph - -  
12:00 AM 55.4 °F 51.8 °F 88% 29.98 in 6.2 mi SW 2.3 mph - N/A   Unknown
12:30 AM 53.6 °F 51.8 °F 94% 29.98 in 6.2 mi Calm Calm - N/A   Unknown
1:00 AM 53.6 °F 51.8 °F 94% 29.95 in 6.2 mi SW 1.2 mph - N/A   Unknown
1:30 AM 53.6 °F 50.0 °F 88% 29.95 in 6.2 mi SW 2.3 mph - N/A   Unknown
2:00 AM 53.6 °F 51.8 °F 94% 29.95 in 6.2 mi Calm Calm - N/A   Unknown
2:30 AM 53.6 °F 51.8 °F 94% 29.95 in 6.2 mi SW 1.2 mph - N/A   Unknown
3:00 AM 54 °F 52 °F 90% 29.96 in - Calm Calm - -  
3:00 AM 53.6 °F 51.8 °F 94% 29.95 in 6.2 mi Calm Calm - N/A   Unknown
3:30 AM 51.8 °F 50.0 °F 94% 29.95 in 6.2 mi Calm Calm - N/A   Unknown
4:00 AM 53.6 °F 51.8 °F 94% 29.95 in 6.2 mi SW 3.5 mph - N/A   Scattered Clouds
4:30 AM 51.8 °F 50.0 °F 94% 29.95 in 6.2 mi Calm Calm - N/A   Unknown
5:00 AM 51.8 °F 50.0 °F 94% 29.95 in 6.2 mi Calm Calm - N/A   Unknown
5:30 AM 53.6 °F 51.8 °F 94% 29.98 in 6.2 mi Calm Calm - N/A   Unknown
6:00 AM 51 °F 50 °F 94% 29.98 in - Calm Calm - -  
6:00 AM 51.8 °F 50.0 °F 94% 29.98 in 6.2 mi Calm Calm - N/A   Unknown
6:30 AM 55.4 °F 53.6 °F 94% 29.98 in 6.2 mi Calm Calm - N/A   Unknown
7:00 AM 59.0 °F 55.4 °F 88% 29.98 in 6.2 mi Calm Calm - N/A   Unknown
7:30 AM 62.6 °F 57.2 °F 82% 30.01 in 6.2 mi Calm Calm - N/A   Unknown
8:00 AM 68.0 °F 55.4 °F 64% 29.98 in 6.2 mi North 4.6 mph - N/A   Unknown
8:30 AM 68.0 °F 57.2 °F 68% 29.98 in 6.2 mi North 6.9 mph - N/A   Unknown
9:00 AM 70 °F 57 °F 55% 30.00 in - NNE 9.2 mph - -  
9:00 AM 69.8 °F 57.2 °F 64% 30.01 in 6.2 mi NNE 9.2 mph - N/A   Scattered Clouds
9:30 AM 69.8 °F 55.4 °F 60% 29.98 in 6.2 mi North 13.8 mph - N/A   Scattered Clouds
10:00 AM 71.6 °F 55.4 °F 57% 29.98 in 6.2 mi North 15.0 mph - N/A   Scattered Clouds
10:30 AM 73.4 °F 57.2 °F 57% 29.98 in 6.2 mi North 13.8 mph - N/A   Scattered Clouds
11:00 AM 71.6 °F 57.2 °F 60% 29.98 in 6.2 mi North 12.7 mph - N/A   Scattered Clouds
11:30 AM 73.4 °F 57.2 °F 57% 29.95 in 6.2 mi NNE 15.0 mph - N/A   Scattered Clouds
12:00 PM 74 °F 60 °F 52% 29.96 in - NNE 15.0 mph - -  
12:00 PM 73.4 °F 59.0 °F 61% 29.95 in 6.2 mi NNE 15.0 mph - N/A   Scattered Clouds
12:30 PM 73.4 °F 57.2 °F 57% 29.95 in 6.2 mi North 17.3 mph - N/A   Scattered Clouds
1:00 PM 73.4 °F 59.0 °F 61% 29.92 in 6.2 mi North 18.4 mph - N/A   Unknown
1:30 PM 73.4 °F 59.0 °F 61% 29.92 in 6.2 mi North 18.4 mph - N/A   Unknown
2:00 PM 73.4 °F 59.0 °F 61% 29.89 in 6.2 mi North 17.3 mph - N/A   Unknown
2:30 PM 73.4 °F 59.0 °F 61% 29.89 in 6.2 mi North 16.1 mph - N/A   Unknown
3:00 PM 73.4 °F 59.0 °F 61% 29.89 in 6.2 mi North 17.3 mph - N/A   Unknown
3:30 PM 73.4 °F 59.0 °F 61% 29.89 in 6.2 mi North 15.0 mph - N/A   Unknown
4:00 PM 71.6 °F 57.2 °F 60% 29.89 in 6.2 mi North 16.1 mph - N/A   Unknown
4:30 PM 71.6 °F 59.0 °F 64% 29.92 in 6.2 mi North 15.0 mph - N/A   Unknown
5:00 PM 69.8 °F 59.0 °F 68% 29.92 in 6.2 mi North 12.7 mph - N/A   Scattered Clouds
5:30 PM 69.8 °F 59.0 °F 68% 29.92 in 6.2 mi North 11.5 mph - N/A   Overcast
6:00 PM 69 °F 60 °F 64% 29.94 in - North 11.5 mph - -  
6:00 PM 69.8 °F 59.0 °F 68% 29.92 in 6.2 mi North 11.5 mph - N/A   Mostly Cloudy
6:30 PM 68.0 °F 59.0 °F 73% 29.95 in 6.2 mi North 11.5 mph - N/A   Unknown
7:00 PM 68.0 °F 59.0 °F 73% 29.95 in 6.2 mi North 12.7 mph - N/A   Unknown
7:30 PM 68.0 °F 59.0 °F 73% 29.98 in 6.2 mi North 11.5 mph - N/A   Scattered Clouds
8:00 PM 68.0 °F 59.0 °F 73% 29.98 in 6.2 mi North 11.5 mph - N/A   Overcast
8:30 PM 68.0 °F 59.0 °F 73% 29.98 in 6.2 mi NNW 9.2 mph - N/A   Overcast
9:00 PM 67 °F 59 °F 68% 30.01 in - NNW 6.9 mph - -  
9:00 PM 66.2 °F 59.0 °F 78% 30.01 in 6.2 mi NNW 6.9 mph - N/A   Scattered Clouds
9:30 PM 66.2 °F 59.0 °F 78% 30.01 in 6.2 mi NW 5.8 mph - N/A   Mostly Cloudy
10:00 PM 66.2 °F 59.0 °F 78% 30.01 in 6.2 mi NW 6.9 mph - N/A   Mostly Cloudy
10:30 PM 66.2 °F 59.0 °F 78% 30.01 in 6.2 mi NNW 6.9 mph - N/A   Mostly Cloudy
11:00 PM 64.4 °F 57.2 °F 77% 30.01 in 6.2 mi WNW 5.8 mph - N/A   Unknown
11:30 PM 62.6 °F 57.2 °F 82% 30.01 in 6.2 mi WNW 3.5 mph - N/A   Scattered Clouds